User: anonymous   Login
Location: ???? ??????? ????
(31.2176°N, 31.6797°E)
Time: 21:14:05
(UTC+00:00)
Language:

Cosmos 2360 - Orbit

View from above orbital plane
View from above orbital plane
View from above satellite
View from above satellite

Ground track
Ground track

The orbit data is extracted from the following two-line orbital elements,

1 25406U 98045A   21016.56738389  .00000232  00000-0  15199-3 0  9997
2 25406  70.8186 135.9828 0003747  13.5185 346.6035 14.12389155158784
Epoch (UTC): 16 January 2021 13:37:01
Eccentricity: 0.0003747
inclination: 70.8186°
perigee height: 848 km
apogee height: 854 km
right ascension of ascending node: 135.9828°
argument of perigee: 13.5185°
revolutions per day: 14.12389155
mean anomaly at epoch: 346.6035°
orbit number at epoch: 15878

The dashed part of the orbit path shows where the satellite is in the earth's shadow,  

DLR